This is the latest recevied weather packets stored in our database for station/object KD4WXI. If no packets are shown the sender has not sent any weather packets the latest 10 day(s).
| Time | Temp. | Humidity | Pressure | Rain* | Wind** | Luminosity | Snow |
|---|---|---|---|---|---|---|---|
| 1777411713 | 17.78° C | 81% | 1018 hPa | 0 mm | - | 104 W/m² | - |
| 1777411409 | 17.22° C | 85% | 1018.2 hPa | 0 mm | - | 128 W/m² | - |
| 1777411109 | 17.22° C | 84% | 1018.3 hPa | 0 mm | - | 117 W/m² | - |
| 1777410808 | 17.22° C | 82% | 1018.2 hPa | 0 mm | - | 146 W/m² | - |
| 1777410508 | 17.22° C | 85% | 1018.4 hPa | 0 mm | - | 142 W/m² | - |
| 1777410208 | 17.22° C | 84% | 1018.4 hPa | 0 mm | - | 119 W/m² | - |
| 1777409903 | 16.67° C | 82% | 1018.4 hPa | 0 mm | - | 138 W/m² | - |
| 1777409599 | 16.67° C | 85% | 1018.4 hPa | 0 mm | - | 130 W/m² | - |
| 1777409294 | 16.67° C | 85% | 1018.4 hPa | 0 mm | - | 122 W/m² | - |
| 1777408990 | 16.67° C | 84% | 1018.5 hPa | 0 mm | - | 145 W/m² | - |
| 1777408688 | 16.67° C | 83% | 1018.6 hPa | 0 mm | - | 161 W/m² | - |
| 1777408383 | 16.67° C | 83% | 1018.5 hPa | 0 mm | - | 152 W/m² | - |
| 1777408083 | 16.67° C | 85% | 1018.7 hPa | 0 mm | - | 128 W/m² | - |
| 1777407779 | 16.67° C | 84% | 1018.7 hPa | 0 mm | - | 147 W/m² | - |
| 1777407474 | 16.67° C | 83% | 1018.9 hPa | 0 mm | - | 166 W/m² | - |
| 1777407169 | 16.67° C | 84% | 1019.2 hPa | 0 mm | - | 127 W/m² | - |
| 1777406864 | 16.67° C | 83% | 1019.2 hPa | 0 mm | - | 159 W/m² | - |
| 1777406560 | 16.67° C | 85% | 1019.4 hPa | 0 mm | - | 165 W/m² | - |
| 1777406256 | 16.11° C | 84% | 1019.3 hPa | 0 mm | - | 213 W/m² | - |
| 1777405955 | 16.11° C | 85% | 1019.3 hPa | 0 mm | - | 158 W/m² | - |
| 1777405651 | 16.11° C | 86% | 1019.6 hPa | 0 mm | - | 132 W/m² | - |
| 1777405349 | 16.11° C | 86% | 1019.2 hPa | 0 mm | - | 96 W/m² | - |
| 1777405044 | 16.67° C | 84% | 1019.5 hPa | 0 mm | - | 116 W/m² | - |
| 1777404739 | 16.67° C | 86% | 1019.5 hPa | 0 mm | - | 282 W/m² | - |
| 1777404435 | 16.67° C | 86% | 1019.4 hPa | 0 mm | - | 121 W/m² | - |
* Rain latest hour (hover to see other rain measurements)
** Current wind speed in m/s (hover to see current wind gust speed)